Wind_Speed
30 29 29 30 30 29 29 29 29 29 29 29 30 31 31 31 32 33 34 35 37 38 39 40 41 41 41 42 44 44 44 46 47 47 48 49 49 49 50 50 51 51 52
31 30 30 30 30 30 30 30 30 30 29 30 31 31 31 32 32 33 34 36 37 38 38 39 40 42 41 42 44 44 45 45 47 48 49 50 49 50 50 51 52 52 53
32 32 31 31 31 31 31 31 31 30 30 31 31 31 31 32 32 32 33 34 35 35 36 37 39 41 41 42 42 43 44 45 47 48 48 49 49 50 51 51 52 53 54
33 32 32 32 32 32 32 32 32 31 32 32 31 31 31 31 32 31 32 33 34 35 36 37 39 40 41 41 41 42 43 44 45 46 47 47 48 49 50 51 52 53 54
33 33 33 33 33 32 32 33 33 33 33 32 31 31 31 31 31 32 33 34 34 35 36 36 37 38 39 39 40 41 42 43 44 45 46 47 48 48 49 50 51 53 53
34 33 33 33 33 33 33 33 33 33 33 32 31 31 31 32 32 33 34 34 34 34 34 34 35 36 38 39 40 41 42 43 43 44 45 46 47 48 49 50 51 52 52
35 34 34 34 34 34 34 34 34 33 34 34 33 33 32 32 33 33 33 34 34 33 33 33 34 35 37 39 40 41 42 43 44 44 45 46 47 48 49 50 51 51 50
35 35 35 36 36 35 34 34 34 34 35 35 34 34 33 33 33 33 33 34 34 34 33 34 34 35 36 38 40 40 40 41 43 44 44 45 46 46 48 48 49 49 48
35 36 36 36 36 35 35 35 35 35 35 35 35 34 34 34 34 34 33 33 33 34 34 35 36 36 36 37 39 40 41 42 43 45 45 45 45 45 46 46 47 48 47
36 36 36 36 35 36 36 35 35 36 36 35 35 35 35 35 35 35 34 34 33 33 34 35 35 36 36 37 39 40 41 42 44 45 45 45 45 45 46 46 47 47 47
36 36 36 35 35 36 36 36 36 36 36 36 36 36 36 36 36 36 35 34 34 34 34 35 36 36 37 38 39 40 41 42 42 43 43 43 44 44 45 46 46 46 45
37 37 37 36 36 36 36 36 36 36 36 36 37 37 36 35 35 35 34 34 35 35 35 35 36 36 36 37 38 39 40 40 40 41 41 42 42 43 43 43 44 44 44
38 37 37 37 37 36 36 36 35 35 36 36 35 34 34 35 35 35 34 34 34 34 34 35 35 36 36 36 37 38 39 39 40 40 40 41 41 41 41 41 42 43 43
38 37 37 36 36 35 35 35 34 34 34 34 34 34 34 34 33 33 33 32 32 33 33 33 34 34 35 36 36 37 38 38 38 39 39 40 40 39 39 39 40 40 40
38 38 37 36 35 35 34 34 34 33 33 33 34 33 33 32 31 31 31 31 32 32 32 32 33 33 34 35 36 37 37 37 37 37 38 38 38 38 39 38 38 39 38
36 36 35 35 34 34 34 34 34 34 33 33 33 33 32 32 31 31 31 31 31 32 32 32 33 33 34 35 35 35 36 36 36 36 37 37 37 37 37 37 38 38 37
34 34 34 34 33 33 33 33 34 34 34 33 33 33 32 32 31 31 31 31 31 31 31 32 33 33 34 35 35 35 35 35 35 35 36 36 36 36 36 36 36 37 36
32 32 33 32 32 33 33 33 33 33 34 34 34 34 33 32 32 32 31 31 31 32 32 32 33 34 35 35 35 35 35 34 35 35 36 35 35 35 35 35 36 36 35
31 32 31 31 32 32 32 33 33 34 34 34 34 34 33 32 31 31 31 31 31 32 32 33 34 35 35 35 34 34 34 34 34 34 34 34 34 34 34 34 33 34 34
30 30 31 31 31 31 32 32 33 33 33 33 33 32 32 31 31 31 31 32 32 32 32 33 34 34 34 34 34 34 34 33 33 33 34 33 33 32 32 32 32 31 31
27 28 29 30 30 30 31 31 31 31 31 31 31 31 31 31 31 31 31 31 32 32 32 33 33 33 33 34 33 33 33 33 33 33 32 31 31 31 31 30 30 30 30
25 26 27 27 27 28 29 29 29 29 30 30 30 31 31 31 30 30 30 30 30 31 32 32 32 32 32 32 32 31 31 31 31 31 31 30 30 30 30 29 28 28 27
25 25 26 26 27 27 28 28 28 29 29 29 29 30 30 30 29 29 29 29 30 31 31 31 31 31 31 30 30 30 31 31 31 30 30 29 29 29 28 28 27 26 25
24 25 26 26 27 26 27 27 28 28 29 29 29 29 29 29 29 29 29 29 29 29 30 30 30 30 29 29 29 30 29 29 29 28 27 27 27 27 27 26 25 25 24
24 24 25 26 26 26 26 27 27 28 28 28 28 28 28 28 28 29 29 29 29 29 29 29 29 28 28 28 28 28 28 27 27 26 26 26 26 26 25 24 24 23 23
24 25 25 25 25 26 26 26 27 27 27 27 27 27 27 27 27 27 27 27 28 28 28 28 27 27 26 26 26 26 26 26 25 25 25 25 25 24 24 23 23 22 22
Wind_Direction
265 266 267 268 268 269 271 270 268 269 269 270 269 267 267 269 270 270 268 269 268 265 265 264 263 263 262 261 260 260 261 261 261 261 261 261 262 263 265 265 266 268 268
264 265 267 269 268 268 270 269 268 268 269 271 270 269 269 270 272 271 269 270 270 269 266 265 264 263 262 262 262 262 262 264 264 264 263 263 264 264 265 266 268 269 270
264 264 266 268 268 268 268 268 268 269 268 270 271 271 272 272 272 271 271 271 270 269 269 267 265 263 262 262 263 263 263 265 265 264 264 265 265 266 267 268 270 270 272
263 263 265 266 267 268 268 268 268 269 268 269 271 271 271 271 271 271 271 270 269 269 269 268 267 265 262 263 264 264 265 266 266 266 266 267 269 269 270 271 271 272 273
262 262 263 264 266 267 267 268 268 269 269 269 271 271 271 272 273 272 273 271 270 271 271 270 268 265 264 264 264 265 267 268 269 268 268 269 271 271 272 273 273 274 274
261 262 263 264 265 266 267 268 268 267 268 269 271 272 273 273 274 274 273 272 272 271 271 270 270 267 265 265 267 267 268 269 271 271 271 271 273 273 273 274 275 275 275
261 262 262 263 265 265 266 267 268 267 267 268 270 273 274 276 276 276 275 275 273 271 270 270 270 269 268 267 269 270 271 272 273 273 273 274 275 274 274 274 275 275 276
261 261 262 264 265 265 265 266 267 267 267 268 270 272 275 277 277 277 277 276 273 272 271 270 270 271 271 271 271 272 274 276 275 276 276 277 276 275 275 275 276 276 276
261 261 262 263 263 263 264 266 267 268 268 268 270 272 274 276 277 277 276 275 273 272 271 271 271 272 273 274 274 274 275 276 276 277 277 277 276 276 276 277 278 279 279
261 261 262 262 262 262 264 266 267 267 267 268 269 271 273 275 275 275 275 274 273 273 273 273 274 274 274 277 277 277 276 277 277 277 277 276 276 276 276 278 278 279 280
260 261 261 262 262 263 264 265 266 267 268 268 269 271 273 273 274 274 275 275 274 275 275 276 275 276 277 278 279 280 279 278 279 278 277 277 277 277 277 278 278 279 280
260 261 261 262 264 264 265 265 266 267 268 269 270 271 272 272 273 274 275 274 274 275 276 276 276 276 277 279 281 282 281 281 281 280 279 279 279 279 278 278 279 280 280
259 261 261 262 264 265 265 265 266 267 269 269 270 270 271 271 273 273 274 274 274 276 277 276 276 276 278 280 283 283 283 283 283 282 281 280 280 280 279 279 279 281 281
258 259 260 261 262 264 265 265 265 266 268 269 269 270 270 271 271 271 272 274 276 277 278 278 277 278 279 282 284 285 285 284 284 283 282 282 281 281 281 280 281 281 281
257 258 259 261 262 263 265 265 264 265 266 267 268 269 269 269 270 271 273 275 276 277 278 277 277 279 281 283 286 286 287 286 285 284 284 284 282 282 282 282 282 282 282
256 257 258 259 261 262 263 264 264 264 265 266 268 269 269 269 270 273 274 275 276 277 277 277 278 280 283 285 287 287 287 286 286 285 285 285 284 283 283 283 282 282 283
255 256 257 259 259 261 262 263 264 264 264 265 267 268 269 270 271 273 274 274 276 277 278 279 280 282 284 286 287 287 287 286 285 286 286 286 286 285 284 284 284 284 282
255 256 257 258 259 261 262 264 264 264 264 264 265 266 268 270 271 272 273 274 275 276 277 279 281 282 284 286 287 287 286 285 285 286 287 288 287 287 287 286 285 284 282
255 255 257 258 260 262 263 263 263 264 264 264 265 266 268 269 271 271 272 273 274 275 277 280 282 283 284 286 287 286 285 285 285 286 287 288 287 287 288 288 286 285 283
255 255 256 258 260 262 263 264 264 264 264 265 265 266 267 268 270 270 271 273 274 276 279 281 282 283 284 285 285 284 284 284 285 286 287 287 288 288 289 289 288 287 285
255 256 257 258 260 261 262 263 264 264 265 264 264 265 266 268 269 271 273 275 277 278 280 281 282 284 285 285 285 284 283 284 285 286 286 287 288 289 290 290 288 287 286
257 258 259 260 261 261 262 263 263 264 265 264 264 264 266 269 271 273 274 276 277 279 281 282 282 283 285 285 284 283 284 285 286 286 286 286 286 288 289 289 290 289 286
259 260 262 262 262 262 261 262 263 264 265 264 264 265 267 269 271 273 274 275 277 279 281 283 284 284 285 284 283 284 285 286 286 286 285 285 286 287 288 289 289 287 285
259 260 261 263 263 262 262 263 265 265 266 266 266 266 267 268 269 271 273 275 278 281 282 283 283 284 285 285 285 285 286 286 286 285 285 285 286 287 288 288 287 286 285
259 261 262 264 264 263 263 264 266 266 267 266 266 266 267 268 270 272 274 276 279 281 283 283 284 284 284 286 286 286 286 285 285 285 285 286 286 287 287 288 286 284 284
260 261 261 262 262 264 265 265 266 265 265 265 266 267 268 269 271 273 276 278 280 281 283 284 284 284 285 286 286 286 285 284 284 284 284 285 287 286 286 286 285 284 283
Height
5656 5657 5657 5657 5657 5657 5657 5657 5656 5656 5655 5655 5655 5654 5653 5653 5652 5652 5652 5651 5651 5651 5651 5651 5653 5654 5655 5656 5657 5658 5660 5661 5662 5664 5664 5664 5664 5665 5664 5664 5664 5664 5663
5647 5648 5648 5648 5648 5649 5649 5648 5648 5648 5647 5646 5646 5645 5644 5644 5643 5642 5642 5641 5641 5641 5641 5641 5642 5643 5644 5645 5646 5647 5647 5648 5649 5650 5651 5651 5651 5651 5651 5651 5650 5650 5649
5638 5639 5639 5639 5639 5640 5640 5640 5639 5639 5638 5638 5637 5636 5635 5634 5633 5633 5632 5631 5631 5631 5630 5630 5631 5631 5632 5633 5634 5634 5635 5636 5636 5637 5638 5638 5637 5637 5637 5637 5636 5635 5634
5628 5629 5630 5630 5630 5630 5630 5630 5630 5630 5629 5629 5628 5627 5626 5625 5624 5623 5622 5622 5621 5621 5620 5620 5620 5620 5620 5621 5622 5623 5623 5623 5623 5623 5624 5624 5624 5623 5623 5623 5622 5620 5618
5619 5619 5620 5620 5621 5621 5621 5621 5621 5620 5620 5619 5619 5618 5617 5616 5615 5614 5613 5612 5611 5611 5610 5609 5609 5609 5609 5610 5611 5612 5612 5612 5611 5611 5611 5611 5610 5609 5609 5608 5607 5605 5604
5609 5610 5610 5611 5611 5611 5611 5611 5611 5611 5610 5610 5610 5609 5608 5607 5606 5604 5603 5602 5601 5600 5600 5600 5599 5599 5599 5600 5600 5600 5601 5600 5600 5599 5599 5598 5597 5596 5594 5593 5591 5590 5590
5598 5599 5600 5601 5601 5601 5601 5601 5601 5601 5601 5601 5600 5599 5599 5597 5596 5595 5593 5592 5591 5590 5590 5590 5590 5589 5589 5589 5589 5589 5589 5588 5588 5587 5586 5585 5584 5582 5581 5580 5577 5575 5573
5588 5589 5589 5590 5590 5591 5591 5591 5592 5591 5591 5591 5591 5590 5589 5588 5586 5585 5583 5582 5581 5580 5580 5580 5580 5579 5579 5578 5578 5578 5577 5576 5575 5575 5574 5572 5570 5568 5566 5565 5563 5561 5559
5577 5578 5578 5579 5580 5580 5581 5581 5581 5581 5581 5581 5580 5580 5579 5577 5575 5574 5573 5572 5571 5571 5570 5570 5570 5569 5568 5568 5567 5567 5565 5564 5562 5561 5559 5558 5556 5554 5553 5551 5549 5547 5546
5566 5566 5567 5568 5569 5569 5570 5570 5570 5570 5570 5570 5570 5569 5568 5566 5565 5564 5563 5562 5562 5561 5560 5560 5559 5558 5557 5556 5556 5555 5553 5552 5550 5548 5546 5544 5542 5540 5539 5537 5536 5534 5532
5554 5555 5556 5557 5558 5558 5559 5559 5559 5559 5559 5559 5559 5558 5557 5556 5555 5554 5553 5552 5552 5551 5550 5549 5548 5547 5546 5545 5544 5543 5541 5539 5537 5535 5533 5531 5529 5527 5525 5524 5522 5520 5519
5543 5544 5545 5546 5547 5547 5548 5548 5548 5548 5548 5548 5547 5547 5546 5545 5544 5543 5542 5542 5541 5540 5540 5538 5537 5536 5535 5534 5533 5531 5529 5527 5525 5523 5521 5519 5517 5515 5513 5511 5509 5507 5505
5531 5533 5534 5535 5536 5536 5536 5537 5537 5537 5537 5537 5536 5536 5535 5534 5533 5533 5532 5531 5530 5530 5529 5528 5527 5526 5525 5523 5521 5519 5517 5515 5513 5511 5509 5507 5505 5503 5501 5499 5497 5495 5493
5520 5521 5523 5524 5525 5525 5525 5526 5526 5526 5526 5526 5526 5525 5525 5524 5523 5523 5522 5521 5520 5519 5518 5517 5517 5515 5514 5512 5510 5508 5506 5504 5502 5500 5497 5495 5493 5491 5489 5487 5485 5483 5481
5508 5510 5511 5513 5513 5514 5515 5515 5515 5515 5515 5516 5515 5515 5515 5515 5514 5513 5512 5512 5511 5510 5509 5508 5507 5505 5504 5502 5500 5498 5495 5493 5490 5488 5486 5484 5482 5480 5478 5476 5474 5472 5470
5497 5499 5500 5502 5503 5503 5504 5505 5504 5505 5505 5505 5505 5505 5504 5504 5504 5503 5503 5502 5501 5500 5499 5498 5497 5496 5494 5492 5490 5487 5485 5482 5480 5478 5476 5473 5471 5469 5467 5465 5463 5461 5459
5486 5488 5489 5491 5492 5493 5494 5494 5494 5494 5494 5494 5494 5494 5494 5494 5494 5494 5493 5492 5491 5491 5490 5488 5487 5486 5484 5482 5480 5477 5475 5472 5470 5468 5466 5464 5461 5459 5457 5455 5453 5451 5449
5476 5477 5479 5480 5481 5482 5483 5484 5484 5484 5484 5484 5484 5484 5484 5485 5484 5484 5483 5483 5482 5481 5480 5479 5477 5476 5474 5472 5469 5467 5465 5463 5461 5459 5456 5454 5452 5449 5447 5445 5443 5440 5438
5466 5467 5469 5470 5471 5472 5473 5473 5473 5474 5474 5474 5474 5474 5474 5474 5474 5474 5474 5473 5472 5471 5470 5469 5467 5465 5463 5461 5459 5457 5455 5453 5451 5449 5447 5444 5442 5440 5437 5435 5432 5430 5428
5456 5458 5459 5461 5462 5462 5463 5463 5463 5464 5464 5464 5464 5465 5465 5465 5465 5464 5464 5463 5462 5461 5460 5459 5457 5455 5453 5451 5449 5447 5445 5443 5441 5439 5437 5435 5433 5430 5428 5425 5423 5421 5419
5448 5449 5450 5451 5452 5452 5453 5453 5454 5454 5454 5454 5455 5455 5455 5455 5455 5455 5454 5453 5452 5451 5450 5448 5447 5445 5443 5441 5439 5437 5435 5434 5432 5430 5428 5426 5424 5421 5419 5417 5414 5412 5410
5439 5440 5441 5442 5442 5443 5443 5444 5444 5444 5445 5445 5445 5445 5445 5446 5445 5445 5444 5444 5443 5441 5440 5438 5437 5435 5433 5431 5429 5428 5426 5424 5422 5421 5419 5417 5415 5413 5410 5408 5406 5404 5402
5431 5432 5433 5433 5434 5434 5434 5435 5435 5435 5436 5436 5436 5436 5436 5436 5436 5436 5435 5434 5433 5432 5430 5429 5427 5425 5423 5422 5420 5418 5417 5415 5413 5411 5410 5408 5406 5404 5402 5400 5398 5396 5395
5423 5424 5424 5425 5425 5425 5426 5426 5426 5426 5427 5427 5427 5427 5427 5427 5427 5427 5426 5425 5424 5423 5421 5420 5418 5416 5414 5412 5411 5409 5408 5406 5404 5402 5401 5400 5398 5396 5395 5393 5391 5389 5388
5414 5415 5416 5416 5416 5417 5417 5417 5417 5417 5418 5418 5418 5418 5418 5418 5418 5418 5417 5416 5415 5414 5412 5411 5409 5407 5405 5404 5402 5400 5399 5397 5396 5394 5393 5392 5390 5389 5387 5385 5383 5382 5381
5406 5407 5407 5407 5408 5408 5408 5408 5408 5409 5409 5409 5409 5409 5410 5410 5409 5409 5408 5407 5406 5405 5403 5402 5400 5399 5397 5395 5394 5392 5391 5389 5388 5387 5386 5384 5383 5381 5380 5378 5377 5375 5374